• In Hungary
  • List of Countries
  • For 7 days
  • Water Temperature
  • Satellite Maps
  • Weather Map
  • News
  • Weather Widgets
  • user-avatar
    Login

    Hourly Weather Denia

    Today, 19 June, Tuesday

    Time Temperature Precipitation Wind Pressure Humidity
    00:00 +25°C° 0 mm 1 mps 760 mmHg 56%
    01:00 +25°C° 0 mm 1 mps 760 mmHg 57%
    02:00 +24°C° 0 mm 1 mps 760 mmHg 58%
    03:00 +24°C° 0 mm 1 mps 760 mmHg 60%
    04:00 +24°C° 0 mm 1 mps 761 mmHg 60%
    05:00 +24°C° 0 mm 1 mps 761 mmHg 59%
    06:00 +24°C° 0 mm 1 mps 761 mmHg 57%
    07:00 +26°C° 0 mm 1 mps 761 mmHg 52%
    08:00 +27°C° 0 mm 1 mps 761 mmHg 46%
    09:00 +29°C° 0 mm 1 mps 761 mmHg 41%
    10:00 +30°C° 0 mm 2 mps 761 mmHg 38%
    11:00 +31°C° 0 mm 2 mps 761 mmHg 36%
    12:00 +34°C° 0 mm 3 mps 761 mmHg 34%
    13:00 +34°C° 0 mm 3 mps 761 mmHg 34%
    14:00 +35°C° 0 mm 3 mps 760 mmHg 33%
    15:00 +35°C° 0 mm 3 mps 760 mmHg 33%
    16:00 +34°C° 0 mm 3 mps 760 mmHg 36%
    17:00 +34°C° 0 mm 3 mps 760 mmHg 39%
    18:00 +33°C° 0 mm 3 mps 760 mmHg 42%
    19:00 +30°C° 0 mm 2 mps 760 mmHg 46%
    20:00 +29°C° 0 mm 2 mps 760 mmHg 50%
    21:00 +27°C° 0 mm 2 mps 760 mmHg 53%
    22:00 +27°C° 0 mm 2 mps 760 mmHg 56%
    23:00 +26°C° 0 mm 1 mps 760 mmHg 59%

    Tomorrow, 20 June, Wednesday

    Time Temperature Precipitation Wind Pressure Humidity
    00:00 +25°C° 0 mm 1 mps 760 mmHg 62%
    01:00 +25°C° 0 mm 1 mps 760 mmHg 63%
    02:00 +24°C° 0 mm 1 mps 759 mmHg 65%
    03:00 +22°C° 0 mm 0 mps 759 mmHg 66%
    04:00 +24°C° 0 mm 1 mps 759 mmHg 63%
    05:00 +25°C° 0 mm 1 mps 759 mmHg 59%
    06:00 +26°C° 0 mm 1 mps 759 mmHg 55%
    07:00 +27°C° 0 mm 1 mps 759 mmHg 49%
    08:00 +29°C° 0 mm 2 mps 759 mmHg 42%
    09:00 +31°C° 0 mm 2 mps 760 mmHg 36%
    10:00 +32°C° 0 mm 2 mps 759 mmHg 33%
    11:00 +34°C° 0 mm 3 mps 759 mmHg 31%
    12:00 +35°C° 0 mm 3 mps 759 mmHg 28%
    13:00 +35°C° 0 mm 3 mps 759 mmHg 29%
    14:00 +36°C° 0 mm 3 mps 759 mmHg 29%
    15:00 +36°C° 0 mm 3 mps 759 mmHg 30%
    16:00 +35°C° 0 mm 3 mps 759 mmHg 32%
    17:00 +34°C° 0 mm 2 mps 758 mmHg 35%
    18:00 +32°C° 0 mm 2 mps 758 mmHg 38%
    19:00 +30°C° 0 mm 2 mps 758 mmHg 43%
    20:00 +28°C° 0 mm 2 mps 759 mmHg 49%
    21:00 +27°C° 0 mm 2 mps 759 mmHg 54%
    22:00 +26°C° 0 mm 2 mps 759 mmHg 56%
    23:00 +25°C° 0 mm 2 mps 759 mmHg 58%

    Day after tomorrow, 21 June, Thursday

    Time Temperature Precipitation Wind Pressure Humidity
    00:00 +25°C° 0 mm 1 mps 759 mmHg 60%
    01:00 +24°C° 0 mm 2 mps 759 mmHg 60%
    02:00 +24°C° 0 mm 2 mps 759 mmHg 60%
    03:00 +23°C° 0 mm 2 mps 758 mmHg 60%
    04:00 +24°C° 0 mm 2 mps 758 mmHg 56%
    05:00 +24°C° 0 mm 2 mps 758 mmHg 51%
    06:00 +25°C° 0 mm 3 mps 758 mmHg 47%
    07:00 +27°C° 0 mm 3 mps 758 mmHg 41%
    08:00 +29°C° 0 mm 3 mps 758 mmHg 36%
    09:00 +31°C° 0 mm 3 mps 759 mmHg 31%
    10:00 +33°C° 0 mm 3 mps 759 mmHg 28%
    11:00 +35°C° 0 mm 3 mps 759 mmHg 26%
    12:00 +36°C° 0 mm 3 mps 759 mmHg 24%
    13:00 +36°C° 0 mm 3 mps 758 mmHg 24%
    14:00 +37°C° 0 mm 3 mps 758 mmHg 24%
    15:00 +37°C° 0 mm 3 mps 758 mmHg 24%
    16:00 +36°C° 0 mm 3 mps 757 mmHg 27%
    17:00 +35°C° 0 mm 2 mps 757 mmHg 30%
    18:00 +34°C° 0 mm 2 mps 757 mmHg 32%
    19:00 +32°C° 0 mm 2 mps 757 mmHg 39%
    20:00 +30°C° 0 mm 2 mps 758 mmHg 45%
    21:00 +28°C° 0 mm 1 mps 758 mmHg 51%
    22:00 +27°C° 0 mm 1 mps 758 mmHg 53%
    23:00 +27°C° 0 mm 1 mps 758 mmHg 56%

    22 June, Friday

    Time Temperature Precipitation Wind Pressure Humidity
    00:00 +26°C° 0 mm 1 mps 758 mmHg 59%
    01:00 +25°C° 0 mm 1 mps 757 mmHg 58%
    02:00 +25°C° 0 mm 1 mps 757 mmHg 58%
    03:00 +25°C° 0 mm 1 mps 757 mmHg 57%
    04:00 +26°C° 0 mm 1 mps 757 mmHg 54%
    05:00 +26°C° 0 mm 1 mps 757 mmHg 52%
    06:00 +27°C° 0 mm 1 mps 757 mmHg 49%
    07:00 +29°C° 0 mm 1 mps 757 mmHg 41%
    08:00 +31°C° 0 mm 1 mps 757 mmHg 34%
    09:00 +33°C° 0 mm 1 mps 757 mmHg 27%
    10:00 +35°C° 0 mm 2 mps 757 mmHg 24%
    11:00 +36°C° 0 mm 3 mps 757 mmHg 22%
    12:00 +38°C° 0 mm 4 mps 757 mmHg 19%
    13:00 +38°C° 0 mm 4 mps 757 mmHg 19%
    14:00 +40°C° 0 mm 4 mps 757 mmHg 20%
    15:00 +40°C° 0 mm 4 mps 756 mmHg 20%
    16:00 +38°C° 0 mm 4 mps 756 mmHg 24%
    17:00 +37°C° 0 mm 4 mps 756 mmHg 27%
    18:00 +36°C° 0 mm 4 mps 756 mmHg 30%
    19:00 +34°C° 0 mm 4 mps 756 mmHg 36%
    20:00 +31°C° 0 mm 3 mps 756 mmHg 42%
    21:00 +30°C° 0 mm 3 mps 757 mmHg 48%
    22:00 +29°C° 0 mm 3 mps 757 mmHg 52%
    23:00 +28°C° 0 mm 2 mps 757 mmHg 56%

    23 June, Saturday

    Time Temperature Precipitation Wind Pressure Humidity
    00:00 +27°C° 0 mm 1 mps 757 mmHg 59%
    01:00 +27°C° 0 mm 2 mps 757 mmHg 61%
    02:00 +26°C° 0 mm 2 mps 757 mmHg 62%
    03:00 +26°C° 0 mm 2 mps 756 mmHg 63%
    04:00 +26°C° 0 mm 2 mps 757 mmHg 60%
    05:00 +27°C° 0 mm 3 mps 757 mmHg 57%
    06:00 +27°C° 0 mm 3 mps 757 mmHg 53%
    07:00 +29°C° 0 mm 3 mps 757 mmHg 47%
    08:00 +31°C° 0 mm 3 mps 757 mmHg 41%
    09:00 +34°C° 0 mm 3 mps 758 mmHg 34%
    10:00 +35°C° 0 mm 4 mps 757 mmHg 33%
    11:00 +36°C° 0 mm 4 mps 757 mmHg 32%
    12:00 +37°C° 0 mm 4 mps 757 mmHg 30%
    13:00 +39°C° 0 mm 5 mps 757 mmHg 31%
    14:00 +39°C° 0 mm 5 mps 757 mmHg 32%
    15:00 +39°C° 0 mm 5 mps 756 mmHg 33%
    16:00 +37°C° 0 mm 5 mps 756 mmHg 37%
    17:00 +36°C° 0 mm 5 mps 756 mmHg 41%
    18:00 +34°C° 0 mm 4 mps 756 mmHg 45%
    19:00 +32°C° 0 mm 4 mps 757 mmHg 52%
    20:00 +30°C° 0 mm 4 mps 757 mmHg 59%
    21:00 +28°C° 0 mm 3 mps 757 mmHg 66%
    22:00 +27°C° 0 mm 3 mps 757 mmHg 69%
    23:00 +26°C° 0 mm 2 mps 757 mmHg 72%

    24 June, Sunday

    Time Temperature Precipitation Wind Pressure Humidity
    00:00 +26°C° 0 mm 2 mps 757 mmHg 75%
    01:00 +25°C° 0 mm 2 mps 757 mmHg 78%
    02:00 +25°C° 0 mm 3 mps 757 mmHg 80%
    03:00 +23°C° 0 mm 4 mps 757 mmHg 83%
    04:00 +24°C° 0 mm 3 mps 757 mmHg 81%
    05:00 +25°C° 0 mm 3 mps 757 mmHg 79%
    06:00 +25°C° 0 mm 3 mps 757 mmHg 78%
    07:00 +27°C° 0 mm 3 mps 757 mmHg 67%
    08:00 +29°C° 0 mm 4 mps 757 mmHg 57%
    09:00 +32°C° 0 mm 4 mps 757 mmHg 47%
    10:00 +33°C° 0 mm 4 mps 757 mmHg 42%
    11:00 +35°C° 0 mm 4 mps 757 mmHg 38%
    12:00 +36°C° 0 mm 4 mps 756 mmHg 34%
    13:00 +36°C° 0 mm 4 mps 756 mmHg 35%
    14:00 +36°C° 0 mm 4 mps 756 mmHg 36%
    15:00 +36°C° 0 mm 4 mps 756 mmHg 38%
    16:00 +35°C° 0 mm 4 mps 756 mmHg 39%
    17:00 +34°C° 0 mm 4 mps 755 mmHg 40%
    18:00 +33°C° 0 mm 4 mps 755 mmHg 42%
    19:00 +30°C° 0 mm 3 mps 756 mmHg 45%
    20:00 +29°C° 0 mm 3 mps 756 mmHg 48%
    21:00 +27°C° 0 mm 3 mps 757 mmHg 52%
    22:00 +27°C° 0 mm 3 mps 757 mmHg 55%
    23:00 +26°C° 0 mm 2 mps 757 mmHg 58%
    Show more